Regional Weather Roundup
Issued by NWS Sterling, VA

Home | Current Version | Previous Version | Graphics & Text | Print | Product List | Glossary On
Versions: 1 2 3 4 5 6 7 8 9 10 11 12 13 14 15 16 17 18 19 20 21 22 23 24 25 26 27 28 29 30 31 32 33 34 35 36 37 38 39 40 41 42 43 44 45 46 47 48 49 50
000
ASUS41 KLWX 282010
RWRLWX

REGIONAL WEATHER ROUNDUP
NATIONAL WEATHER SERVICE BALTIMORE MD/WASHINGTON DC
400 PM EDT SAT MAR 28 2015

Note: "FAIR" indicates few or no clouds below 12,000 feet
with no significant weather and/or obstructions to visibility.
 TC=TEMPERATURE CELSIUS

 * =Non NWS site. Station does not report precipitation (e.g. rain,
    snow, etc.), thunder, or fog.

DCZ001-MDZ009-015-VAZ040>042-051-053>054-282100-
WASHINGTON METRO

CITY           SKY/WX    TMP DP  RH WIND       PRES   REMARKS
WASHINGTON NAT PTSUNNY   36  11  35 W14G26    30.05R WCI  27
DULLES         PTSUNNY   34  12  40 NW20G29   30.05R WCI  23
ANDREWS AFB    PTSUNNY   33  10  39 NW18G29   30.01R WCI  22
FT BELVOIR     MOSUNNY   34   8  34 W15G26    30.05R WCI  24
QUANTICO       MOSUNNY   35   7  31 N18G40    30.08R WCI  24
COLLEGE PARK*  CLOUDY    34  10  37 W12G21    30.03R WCI  25
LEESBURG*      CLOUDY    32  16  51 NW18G31   30.06S WCI  20
MANASSAS*      PTSUNNY   34  10  37 NW22G30   30.07R WCI  22
GAITHERSBURG*  PTSUNNY   32  12  43 NW14G23   30.06R WCI  22

$$

MDZ006>007-011-014-282100-
BALTIMORE METRO

CITY           SKY/WX    TMP DP  RH WIND       PRES   REMARKS
BWI AIRPORT    FLURRIES  33  14  45 NW21G30   30.01R WCI  21
MD SCIENCE CTR   N/A     33  16  49 MISG      30.01R
MARTIN STATE   PTSUNNY   34  19  55 W16G26    30.02R WCI  23
ANNAPOLIS      CLOUDY    34  16  47 W13G23    30.01R WCI  25

$$

MDZ012-015-019>023-282100-
MARYLAND EASTERN SHORE

CITY           SKY/WX    TMP DP  RH WIND       PRES   REMARKS
OCEAN CITY     CLOUDY    34  20  56 NW9G21    29.97R WCI  27
SALISBURY      CLOUDY    37  20  50 W16G25    29.97R WCI  28
BAY BRIDGE AP*   N/A     34  18  51 NW20      30.01R WCI  22
CAMBRIDGE*     MOSUNNY   36  18  48 NW13G25   29.99S WCI  27
EASTON*        MOSUNNY   36  19  51 NW17G35   30.03R WCI  25

$$

MDZ017>025-282100-
SOUTHERN MARYLAND

CITY           SKY/WX    TMP DP  RH WIND       PRES   REMARKS
PATUXENT RIVER PTSUNNY   36  11  35 NW23G31   30.01R WCI  24
ST INIGOES     MOSUNNY   38  11  32 W21G30    30.01R WCI  28
LEONARDTOWN*   PTSUNNY   36  10  35 W17G23    30.02S WCI  25

$$

MDZ003>005-282100-
NORTH CENTRAL MARYLAND

CITY           SKY/WX    TMP DP  RH WIND       PRES   REMARKS
FREDERICK*     PTSUNNY   36   7  30 N17G24    30.07R WCI  25
HAGERSTOWN APT CLOUDY    33   8  35 NW25G32   30.03R WCI  20
WESTMINSTER*   PTSUNNY   34   9  35 NW10G22   29.99R WCI  26

$$

MDZ501>502-282100-
WESTERN MARYLAND

CITY           SKY/WX    TMP DP  RH WIND       PRES   REMARKS
OAKLAND*       CLOUDY    18  10  73 NW14G22   29.97S WCI   4
CUMBERLAND*    MOSUNNY   32   7  34 NW10G25   30.14R WCI  24

$$

VAZ025>031-282100-
SHENANDOAH VALLEY

CITY           SKY/WX    TMP DP  RH WIND       PRES   REMARKS
WINCHESTER*    PTSUNNY   32   1  27 NW24G30   30.06R WCI  19
FRONT ROYAL*   CLOUDY    32   7  34 NW16G23   30.07R WCI  21
LURAY*         MOCLDY    34  10  37 W9G31     30.07S WCI  26
NEW MARKET*    MOCLDY    29   6  36 N9G23     30.07S WCI  21
STAUNTON*      CLOUDY    33   6  32 N17G25    30.06R WCI  22
WAYNESBORO*    MOCLDY    33   7  33 NW16G26   30.02R WCI  23

$$

WVZ021-048>050-054>055-282100-
EASTERN WEST VIRGINIA PANHANDLE

CITY           SKY/WX    TMP DP  RH WIND       PRES   REMARKS
MARTINSBURG    PTSUNNY   33   6  32 NW21G29   30.06R WCI  21
PETERSBURG*    MOSUNNY   30   3  31 NW15G29   30.11S WCI  19

$$

VAZ036>039-050-282100-
CENTRAL FOOTHILLS

CITY           SKY/WX    TMP DP  RH WIND       PRES   REMARKS
CHARLOTTESVILL PTSUNNY   35  10  35 N12G21    30.05R WCI  27
CULPEPER*      FAIR      36   9  32 NW13G18   30.09R WCI  27
ORANGE*        SUNNY     36  10  35 W13G28    30.08R WCI  27
GORDONSVILLE*  MOCLDY    35   9  34 NW7G21    30.05R
WARRENTON*     FAIR      36  17  46 N15G30    30.07S WCI  27

$$

VAZ055>057-282100-
NORTH AND CENTRAL PIEDMONT

CITY           SKY/WX    TMP DP  RH WIND       PRES   REMARKS
FREDERICKSBRG* MOSUNNY   38  11  32 NW14G24   30.06R
STAFFORD*      MOSUNNY   35   6  30 NW18G28   30.11R WCI  24

$$

NCZ024-NYZ072-PAZ021-071-VAZ022-071-282100-
OTHER REGIONAL OBSERVATIONS

CITY           SKY/WX    TMP DP  RH WIND       PRES   REMARKS
NEW YORK CITY  CLOUDY    39  22  50 NE9G18    29.86S
PHILADELPHIA   CLOUDY    40  13  33 NW20G29   29.92R
PITTSBURGH     PTSUNNY   28   8  43 NW13      30.14S WCI  17
ROANOKE        MOSUNNY   36   5  27 W15G29    30.08F WCI  27
RICHMOND       PTSUNNY   40   9  28 NW15      30.02R
RALEIGH        MOSUNNY   45  13  27 VRB6G16   30.04F

$$

ANZ530>537-282100-
MARINE OBSERVATIONS

STATION/POSITION TIME  TEMP    WIND        PRES
                       AIR SEA DIR/SP/G
                 (UTC) (F)     (DEG/KT/KT) (MB)
THOMAS PT LIGHT  2000                        N/A
BALT KEY BRIDGE  1900   32     300/ 21/ 24 1015.6R
COVE POINT       1900   33     350/ 19/ 24 1015.5S
LEWISETTA        1900   34 46              1016.2R
SOLOMONS ISLAND  1900      44                N/A
PINEY POINT      1912          320/ 22/ 27   N/A

$$



USA.gov is the U.S. government's official web portal to all federal, state and local government web resources and services.